TimeCST,TemperatureF,Dew PointF,Humidity,Sea Level PressureIn,VisibilityMPH,Wind Direction,Wind SpeedMPH,Gust SpeedMPH,PrecipitationIn,Events,Conditions,WindDirDegrees,DateUTC
12:15 AM,32.0,23.4,70,30.18,10.0,North,9.2,-,N/A,,Overcast,10,2012-11-26 06:15:00
12:35 AM,32.0,23.4,70,30.18,10.0,North,9.2,-,N/A,,Overcast,10,2012-11-26 06:35:00
12:55 AM,32.0,23.4,70,30.18,10.0,North,8.1,-,N/A,,Overcast,10,2012-11-26 06:55:00
1:15 AM,31.8,23.4,71,30.18,10.0,North,9.2,-,N/A,,Overcast,10,2012-11-26 07:15:00
1:35 AM,31.6,23.5,72,30.19,10.0,NNE,6.9,-,N/A,,Overcast,20,2012-11-26 07:35:00
1:55 AM,31.5,23.5,73,30.19,10.0,NNE,5.8,-,N/A,,Overcast,30,2012-11-26 07:55:00
2:15 AM,31.5,23.5,73,30.20,10.0,NNE,4.6,-,N/A,,Overcast,20,2012-11-26 08:15:00
2:35 AM,31.5,23.5,73,30.21,10.0,North,5.8,-,N/A,,Overcast,10,2012-11-26 08:35:00
2:55 AM,31.1,23.4,73,30.21,10.0,North,6.9,-,N/A,,Overcast,360,2012-11-26 08:55:00
3:15 AM,31.1,23.5,74,30.24,10.0,North,8.1,-,N/A,,Overcast,360,2012-11-26 09:15:00
3:35 AM,31.1,23.5,74,30.24,10.0,North,6.9,-,N/A,,Overcast,360,2012-11-26 09:35:00
3:55 AM,31.1,23.5,74,30.24,10.0,North,8.1,-,N/A,,Overcast,350,2012-11-26 09:55:00
4:15 AM,30.9,23.7,75,30.25,10.0,North,10.4,-,N/A,,Overcast,350,2012-11-26 10:15:00
4:35 AM,30.6,23.7,76,30.24,10.0,North,10.4,-,N/A,,Overcast,350,2012-11-26 10:35:00
4:55 AM,29.7,23.5,78,30.25,10.0,North,9.2,17.3,N/A,,Overcast,350,2012-11-26 10:55:00
5:15 AM,29.1,23.4,79,30.27,10.0,NNW,12.7,-,N/A,,Overcast,340,2012-11-26 11:15:00
5:35 AM,28.9,23.0,78,30.27,10.0,North,10.4,-,N/A,,Overcast,350,2012-11-26 11:35:00
5:55 AM,28.8,23.0,79,30.28,10.0,North,10.4,-,N/A,,Overcast,350,2012-11-26 11:55:00
6:35 AM,27.3,20.5,75,30.31,10.0,NNW,16.1,20.7,N/A,,Overcast,340,2012-11-26 12:35:00
6:55 AM,26.4,19.9,77,30.32,10.0,NNW,11.5,-,N/A,,Overcast,340,2012-11-26 12:55:00
7:15 AM,25.7,19.4,77,30.33,10.0,NNW,15.0,-,N/A,,Overcast,340,2012-11-26 13:15:00
7:35 AM,25.3,19.4,78,30.34,10.0,North,9.2,-,N/A,,Overcast,350,2012-11-26 13:35:00
7:55 AM,24.8,19.0,79,30.36,10.0,NNW,15.0,-,N/A,Snow,Light Snow,340,2012-11-26 13:55:00
8:15 AM,24.6,18.0,76,30.38,10.0,North,11.5,-,N/A,,Overcast,360,2012-11-26 14:15:00
8:35 AM,24.8,17.2,73,30.38,10.0,North,12.7,-,N/A,,Overcast,360,2012-11-26 14:35:00
8:55 AM,24.4,16.7,72,30.39,10.0,North,11.5,-,N/A,,Overcast,10,2012-11-26 14:55:00
9:15 AM,23.9,17.1,75,30.40,10.0,NNW,12.7,-,N/A,,Overcast,340,2012-11-26 15:15:00
9:35 AM,24.1,17.1,75,30.41,10.0,North,13.8,-,N/A,,Overcast,350,2012-11-26 15:35:00
9:55 AM,24.3,16.3,72,30.42,10.0,North,13.8,-,N/A,,Overcast,350,2012-11-26 15:55:00
10:15 AM,24.6,16.2,70,30.43,10.0,North,15.0,-,N/A,,Overcast,350,2012-11-26 16:15:00
10:35 AM,25.2,15.6,67,30.44,10.0,NNW,12.7,-,N/A,,Overcast,340,2012-11-26 16:35:00
10:55 AM,24.8,14.4,65,30.44,10.0,North,9.2,-,N/A,,Overcast,360,2012-11-26 16:55:00
11:15 AM,24.8,13.5,62,30.45,10.0,North,15.0,-,N/A,,Overcast,350,2012-11-26 17:15:00
11:35 AM,24.8,12.9,61,30.44,10.0,NNW,12.7,-,N/A,,Scattered Clouds,330,2012-11-26 17:35:00
11:55 AM,25.0,12.4,59,30.44,10.0,NNW,12.7,-,N/A,,Clear,330,2012-11-26 17:55:00
12:15 PM,25.7,12.6,58,30.44,10.0,NNW,11.5,17.3,N/A,,Clear,340,2012-11-26 18:15:00
12:35 PM,26.2,12.6,56,30.43,10.0,NNW,12.7,19.6,N/A,,Clear,340,2012-11-26 18:35:00
12:55 PM,26.4,12.0,55,30.43,10.0,NNW,13.8,-,N/A,,Clear,330,2012-11-26 18:55:00
1:15 PM,26.8,11.1,52,30.43,10.0,NNW,10.4,18.4,N/A,,Clear,340,2012-11-26 19:15:00
1:35 PM,27.1,10.2,49,30.42,10.0,NNW,12.7,16.1,N/A,,Clear,330,2012-11-26 19:35:00
1:55 PM,27.3,9.9,48,30.42,10.0,NNW,13.8,17.3,N/A,,Clear,330,2012-11-26 19:55:00
2:15 PM,28.0,8.4,44,30.42,10.0,NNW,13.8,-,N/A,,Clear,330,2012-11-26 20:15:00
2:35 PM,27.5,8.2,44,30.41,10.0,North,6.9,-,N/A,,Clear,350,2012-11-26 20:35:00
2:55 PM,27.7,8.1,44,30.41,10.0,NNW,9.2,-,N/A,,Clear,340,2012-11-26 20:55:00
3:15 PM,28.0,7.9,43,30.41,10.0,NNW,9.2,-,N/A,,Clear,340,2012-11-26 21:15:00
3:35 PM,27.5,7.5,43,30.40,10.0,North,8.1,-,N/A,,Clear,360,2012-11-26 21:35:00
3:55 PM,27.5,6.8,42,30.41,10.0,NNW,5.8,-,N/A,,Clear,330,2012-11-26 21:55:00
4:15 PM,26.8,5.9,41,30.41,10.0,NNW,8.1,-,N/A,,Clear,330,2012-11-26 22:15:00
4:35 PM,25.7,6.8,45,30.41,10.0,NW,8.1,-,N/A,,Clear,320,2012-11-26 22:35:00
4:55 PM,24.1,6.8,48,30.41,10.0,NNW,6.9,-,N/A,,Clear,330,2012-11-26 22:55:00
5:15 PM,22.5,6.8,51,30.41,10.0,NW,3.5,-,N/A,,Clear,320,2012-11-26 23:15:00
5:35 PM,20.3,6.4,55,30.42,7.0,Calm,Calm,-,N/A,,Clear,0,2012-11-26 23:35:00
5:55 PM,20.3,6.6,56,30.42,10.0,Calm,Calm,-,N/A,,Clear,0,2012-11-26 23:55:00
6:15 PM,16.9,6.6,64,30.42,7.0,Calm,Calm,-,N/A,,Clear,0,2012-11-27 00:15:00
6:35 PM,15.4,5.7,65,30.42,7.0,Calm,Calm,-,N/A,,Clear,0,2012-11-27 00:35:00
6:55 PM,14.0,4.5,66,30.43,10.0,Calm,Calm,-,N/A,,Clear,0,2012-11-27 00:55:00
7:15 PM,12.7,4.3,69,30.42,10.0,Calm,Calm,-,N/A,,Clear,0,2012-11-27 01:15:00
7:35 PM,14.0,5.0,67,30.41,10.0,Calm,Calm,-,N/A,,Clear,0,2012-11-27 01:35:00
7:55 PM,12.4,4.3,70,30.41,10.0,Calm,Calm,-,N/A,,Clear,0,2012-11-27 01:55:00
8:15 PM,10.8,3.4,72,30.41,10.0,Calm,Calm,-,N/A,,Clear,0,2012-11-27 02:15:00
8:35 PM,10.8,3.7,73,30.41,10.0,SSW,4.6,-,N/A,,Clear,200,2012-11-27 02:35:00
8:55 PM,9.5,3.4,76,30.41,10.0,SSW,3.5,-,N/A,,Clear,200,2012-11-27 02:55:00
9:15 PM,10.6,4.1,75,30.41,10.0,SW,3.5,-,N/A,,Clear,220,2012-11-27 03:15:00
9:35 PM,10.4,3.7,74,30.41,10.0,SW,4.6,-,N/A,,Clear,220,2012-11-27 03:35:00
9:55 PM,9.3,3.2,76,30.41,10.0,South,3.5,-,N/A,,Clear,190,2012-11-27 03:55:00
10:15 PM,9.1,3.4,77,30.40,10.0,SSW,4.6,-,N/A,,Clear,210,2012-11-27 04:15:00
10:55 PM,9.1,3.4,77,30.39,10.0,SW,4.6,-,N/A,,Clear,220,2012-11-27 04:55:00
11:15 PM,9.3,3.9,79,30.39,10.0,SSW,3.5,-,N/A,,Clear,200,2012-11-27 05:15:00
11:35 PM,9.3,3.2,76,30.39,10.0,Calm,Calm,-,N/A,,Clear,0,2012-11-27 05:35:00
11:55 PM,9.0,3.7,79,30.39,10.0,SSW,4.6,-,N/A,,Clear,210,2012-11-27 05:55:00